Location: Albany
(35.0000°S, 118.0000°E)
Time: 07:58:34
(UTC-04:00)

Tiangong - Pass Details

Date: 25 September 2021
Orbit: 382 x 385 km, 41.5° (Epoch: 16 October)

Event Time Altitude Azimuth Distance (km) Brightness Sun altitude
Rises 07:55:16 0° 251° (WSW) 2,289 6.5 -22.7°
Reaches altitude 10° 07:57:36 10° 236° (WSW) 1,433 5.0 -23.1°
Enters shadow 07:59:47 23° 196° (SSW) 885 3.2 -23.5°
